Weather in Gandhinagar

India     23°14′14″N   72°39′39″E
temp.,
°C
wind,
m/s
gust,
m/s
humid.,
%
clouds,
%
prec.,
mm/h
press.,
hPa
HPBL,
m
27 january, thu
thu2723:30+13ne33390 0.0 101619
02:30+12ne45430 0.0 101552
05:30+11ene48490 0.0 1015105
08:30+13ene410450 0.0 1018243
11:30+22e66240 0.0 10181098
14:30+25ene55160 0.0 10151624
17:30+23ene46170 0.0 1014377
20:30+16e34270 0.0 101634
28 january, fri
fri2823:30+15ne33300 0.0 101728
02:30+12ne46370 0.0 101678
05:30+11ene48410 0.0 1016111
08:30+13ene410380 0.0 1018219
11:30+23e67190 0.0 1018937
14:30+26e55130 0.0 10141371
17:30+25e46140 0.0 1013316
20:30+18e33220 0.0 101625
29 january, sat
sat2923:30+16ene33250 0.0 101624
02:30+14ene45330 0.0 101558
05:30+12ene45370 0.0 101563
08:30+15ene48320 0.0 1017156
11:30+25e55160 0.0 1017748
14:30+29e32120 0.0 10141382
17:30+28e33140 0.0 101367
20:30+19nne22220 0.0 101511
30 january, sun
sun3023:30+17n33285 0.0 101520
02:30+15n22320 0.0 101312
05:30+14nne22310 0.0 101213
08:30+17ne23270 0.0 101466
11:30+27n01155 0.0 1014756
14:30+31wsw3395 0.0 10091553
17:30+29w56120 0.0 1009353
20:30+19wnw45230 0.0 101252
31 january, mon
mon3123:30+17nw33280 0.0 101223
02:30+16nw33390 0.0 101018
05:30+14nw22490 0.0 101014
08:30+17nw22510 0.0 101386
11:30+27w34320 0.0 1012999
14:30+31w55240 0.0 10081550
17:30+29w56260 0.0 10071077
20:30+21wnw23516 0.0 101018